SCP
0 0 0 0 0 0 0 0 0 0 0 0 0 0 0 0 0 0 0 0 0 0 0 0 0 0 0 0 1 1 1 1 1 1 0 0 0 0 0 0 0 0 0
0 0 0 0 0 0 0 0 0 0 0 0 0 0 0 0 0 0 0 0 0 0 0 0 0 0 0 0 0 0 1 1 1 1 1 0 0 0 0 0 0 0 0
0 0 0 0 0 0 0 0 0 0 0 0 0 0 0 0 0 0 0 0 0 0 0 0 0 0 0 0 0 0 0 1 1 1 1 0 0 0 0 0 0 0 0
0 0 0 0 0 0 0 0 0 0 0 0 0 0 0 0 0 0 0 0 0 0 0 0 0 0 0 0 0 0 0 0 1 1 1 0 0 0 0 0 0 0 0
0 0 0 0 0 0 0 0 0 0 0 0 0 0 0 0 0 0 0 0 0 0 0 0 0 0 0 0 0 0 0 0 0 0 0 0 0 0 1 0 0 0 0
0 0 0 0 0 0 0 0 0 0 0 0 0 0 0 0 0 0 0 0 0 0 0 0 0 0 0 0 0 0 0 0 0 0 0 0 0 1 1 1 1 0 0
0 0 0 0 0 0 0 0 0 0 0 0 0 0 0 0 0 0 0 0 0 0 0 0 0 0 0 0 0 0 0 0 0 0 0 0 0 1 1 1 1 1 0
0 0 0 0 0 0 0 0 0 0 0 0 0 0 0 0 0 0 0 0 0 0 0 0 0 0 0 0 0 0 0 0 0 0 0 0 0 1 1 1 1 1 1
0 0 0 0 0 0 0 0 0 0 0 0 0 0 0 0 0 0 0 0 0 0 0 0 0 0 0 0 0 0 0 0 0 0 0 0 0 1 1 1 1 1 1
0 0 0 0 0 0 0 0 0 0 0 0 0 0 0 0 0 0 0 0 0 0 0 0 0 0 0 0 0 0 0 0 0 0 0 0 0 0 1 1 1 1 1
0 0 0 0 0 0 0 0 0 0 0 0 0 0 0 0 0 0 0 0 0 0 0 0 0 0 0 0 0 0 0 0 0 0 0 0 0 0 0 1 1 1 1
0 0 0 0 0 0 0 0 0 0 0 0 0 0 0 0 0 0 0 0 0 0 0 0 0 0 0 0 0 0 0 0 0 0 0 0 0 0 0 0 1 1 1
0 0 0 0 0 0 0 0 0 0 0 0 0 0 0 0 0 0 0 0 0 0 0 0 0 0 0 0 0 0 0 0 0 0 0 0 0 0 0 0 0 1 1
0 0 0 0 0 0 0 0 0 0 0 0 0 0 0 0 0 0 0 0 0 0 0 0 0 0 0 0 0 0 0 0 0 0 0 0 0 0 0 0 0 1 1
0 0 0 0 0 0 0 0 0 0 0 0 0 0 0 0 0 0 0 0 0 0 0 0 0 0 0 0 0 0 0 0 0 0 0 0 0 0 0 0 0 0 0
0 0 0 0 0 0 0 0 0 0 0 0 0 0 0 0 0 0 0 0 0 0 0 0 0 0 0 0 0 0 0 0 0 0 0 0 0 0 0 0 0 0 0
0 0 0 0 0 0 0 0 0 0 0 0 0 0 0 0 0 0 0 0 0 0 0 0 0 0 0 0 0 0 0 0 0 0 0 0 0 0 0 0 0 0 0
0 0 0 0 0 0 0 0 0 0 0 0 0 0 0 0 0 0 0 0 0 0 0 0 0 0 0 0 0 0 0 0 0 0 0 0 0 0 0 0 0 0 0
0 0 0 0 0 0 0 0 0 0 0 0 0 0 0 0 0 0 0 0 0 0 0 0 0 0 0 -0 -0 -0 -0 0 0 0 0 0 0 0 0 0 0 0 0
0 0 0 0 0 0 0 0 0 0 0 0 0 0 0 0 0 0 0 0 0 0 0 0 0 -0 0 -0 -0 -0 -0 0 0 0 0 0 0 0 0 0 0 0 0
0 0 0 0 0 0 0 0 0 0 0 0 0 0 0 0 0 0 0 0 0 0 0 0 0 0 0 -0 -0 -0 -0 -0 0 0 0 0 0 0 0 0 0 0 0
0 0 0 0 0 0 0 0 0 0 0 0 0 0 0 0 0 0 0 0 0 0 0 0 0 0 0 0 -0 -0 -0 -0 -0 0 0 0 0 0 0 0 0 0 0
0 0 0 0 0 0 0 0 0 0 0 0 0 0 0 0 0 0 0 0 0 0 0 0 0 0 0 0 0 -0 -0 -0 -0 0 0 0 0 0 0 0 0 0 0
0 0 0 0 0 0 0 0 0 0 0 0 0 0 0 0 0 0 0 0 0 0 0 0 0 0 0 0 0 0 0 0 0 0 0 0 0 0 0 0 0 0 0
0 0 0 0 0 0 0 0 0 0 0 0 0 0 0 0 0 0 0 0 0 0 0 0 0 0 0 0 0 0 0 0 0 0 0 0 0 0 0 0 0 0 0
0 0 0 0 0 0 0 0 0 0 0 0 0 0 0 0 0 0 0 0 0 0 0 0 0 0 0 0 0 0 0 0 0 0 0 0 0 0 0 0 0 0 0
Wind_Speed
10 14 24 25 26 26 26 27 27 27 27 27 27 27 27 27 27 27 27 27 27 26 26 26 25 25 24 23 20 18 17 15 14 11 9 9 9 7 6 5 5 3 5
10 14 23 25 25 26 26 26 27 27 27 27 27 27 27 27 27 26 27 27 27 27 27 26 26 25 25 24 23 21 19 17 15 14 11 8 9 9 8 7 7 5 7
12 14 17 25 25 25 26 26 26 26 26 26 26 27 27 27 27 26 27 27 27 26 26 26 26 25 25 25 24 23 22 19 17 15 12 5 6 10 11 9 9 9 9
11 13 16 24 25 25 26 26 26 26 26 26 26 26 26 27 27 27 27 27 27 26 26 26 26 25 25 25 25 24 23 22 20 16 7 5 5 10 11 11 11 11 11
9 12 17 25 25 25 26 26 26 27 27 26 26 26 26 26 27 26 27 27 27 27 26 26 26 26 26 25 25 25 24 23 22 16 7 6 5 11 14 13 12 13 12
9 11 17 26 26 25 26 26 26 26 26 26 26 26 26 26 26 26 26 27 27 27 26 26 26 26 26 26 26 25 25 24 20 11 8 6 6 12 16 16 14 15 15
8 10 15 25 25 25 25 26 26 26 26 26 26 26 26 26 26 26 26 26 26 26 26 26 26 26 26 26 25 25 26 26 16 11 9 7 7 15 17 17 17 16 17
8 9 13 23 25 25 25 25 26 25 26 25 26 26 26 27 27 26 27 27 26 26 25 26 26 27 26 26 25 25 25 24 16 13 12 9 12 16 18 18 18 18 19
7 10 11 12 16 22 24 25 25 25 25 25 25 26 26 27 27 27 27 27 26 26 25 26 26 26 26 26 25 26 26 24 14 11 13 10 15 17 18 18 19 19 19
7 9 10 10 11 11 12 21 24 23 24 24 24 25 25 25 24 26 25 26 26 26 25 26 26 26 26 25 25 26 25 19 12 14 9 11 20 20 19 19 19 19 19
9 8 9 10 10 11 10 15 17 18 20 20 18 23 20 11 11 14 22 25 26 26 26 26 26 26 25 23 25 25 20 9 13 10 9 17 23 23 21 19 19 19 20
10 8 8 8 8 8 9 7 6 8 9 9 9 10 9 9 10 15 21 23 24 25 25 25 26 23 18 12 16 19 9 13 10 9 11 23 24 24 23 22 20 19 20
5 7 7 7 7 7 6 6 5 5 5 7 9 10 9 7 7 8 7 10 12 16 12 16 15 11 11 11 11 11 11 10 8 9 12 24 25 25 24 23 22 20 20
6 6 5 6 6 6 6 5 4 5 5 6 7 9 8 6 7 8 7 8 7 7 9 10 9 12 12 13 13 13 13 10 9 9 11 23 25 26 25 24 23 21 20
6 7 6 5 6 6 5 5 6 5 6 6 6 7 8 6 7 8 7 7 8 8 9 10 11 13 13 13 12 14 14 14 13 12 10 22 26 25 25 23 23 22 21
5 6 6 4 6 6 5 5 5 5 5 5 5 7 9 7 7 8 8 7 7 8 9 9 12 11 11 11 13 14 14 14 12 12 11 15 22 24 23 23 22 21 21
3 5 7 5 6 6 6 6 6 5 6 6 6 7 8 8 8 8 7 7 7 8 10 9 10 9 11 12 13 14 13 12 13 14 13 11 11 18 21 21 20 20 20
4 5 6 7 6 6 6 6 5 5 6 6 6 6 8 9 9 7 7 6 7 8 8 9 8 10 11 11 12 12 12 12 15 14 12 11 9 9 12 18 18 18 19
4 5 6 6 6 7 7 6 6 5 6 6 6 6 8 9 10 8 7 6 8 7 7 9 9 10 11 12 12 12 11 12 13 13 12 11 9 8 7 13 17 17 17
4 5 5 6 6 6 5 5 5 5 5 5 5 6 9 9 10 9 7 7 8 7 6 8 10 10 9 11 13 13 12 14 11 8 9 8 7 7 8 10 9 11 16
4 5 5 6 7 6 6 6 7 7 7 5 5 8 10 10 10 9 8 8 7 7 8 9 9 11 9 9 10 12 11 10 8 5 6 5 5 7 9 10 8 8 8
5 5 6 7 7 7 6 5 5 7 5 5 6 7 9 10 11 10 9 9 8 8 8 9 10 8 9 7 9 11 8 6 5 8 6 5 5 7 10 12 11 10 9
4 5 7 7 8 7 8 6 8 5 4 5 7 5 7 11 11 11 10 10 9 7 8 9 8 9 10 8 5 6 7 7 11 6 5 4 6 7 8 10 12 12 11
4 5 6 6 7 7 7 8 9 9 9 9 7 8 10 10 11 11 11 11 9 8 9 10 8 8 9 9 8 6 8 9 8 8 5 4 7 8 9 11 12 11 11
4 5 5 6 6 7 7 8 8 7 7 8 8 9 9 8 9 11 12 10 10 9 10 10 10 8 7 8 8 8 9 9 9 9 12 8 7 5 7 10 10 9 9
4 4 5 6 7 7 8 8 8 9 10 12 12 10 9 8 8 10 13 10 10 10 10 11 9 9 8 9 8 8 9 8 7 8 11 13 11 8 9 8 8 8 8
Wind_Direction
343 345 356 9 13 15 16 17 17 17 17 16 15 15 15 13 12 12 11 9 7 6 4 2 1 0 358 353 346 338 332 325 317 310 304 300 298 285 258 242 252 265 223
344 350 358 11 14 15 16 17 17 16 15 15 14 13 12 11 11 10 9 7 5 3 1 360 359 357 357 356 353 345 333 325 317 310 300 292 290 286 271 243 240 247 232
358 353 355 12 15 16 17 17 16 15 15 14 13 12 11 10 9 9 7 5 3 1 359 357 356 355 355 353 351 348 342 331 320 311 302 286 275 278 273 254 239 245 231
1 358 360 15 15 16 16 16 15 14 14 13 12 12 11 9 7 7 5 2 0 359 357 355 354 353 352 350 348 345 344 341 332 318 305 278 266 273 271 262 244 240 231
6 5 2 17 16 16 16 16 15 14 13 12 12 11 10 9 6 5 3 360 358 357 355 354 352 351 349 348 345 343 343 342 339 329 310 287 269 272 271 266 252 241 234
16 9 6 18 16 16 16 16 14 14 13 12 11 10 10 7 4 4 2 358 357 355 353 353 350 349 347 346 344 343 342 341 337 327 311 291 273 274 272 265 257 243 236
25 20 13 19 17 15 15 15 13 13 12 12 10 9 8 5 2 1 0 356 355 353 352 351 349 347 345 344 343 342 341 339 334 328 320 301 283 282 276 268 259 247 236
32 27 22 18 17 15 14 15 13 13 12 11 10 8 7 4 0 360 358 353 352 351 351 350 347 345 344 343 342 341 340 338 336 333 324 308 295 290 280 271 263 253 240
39 33 24 18 15 12 12 14 12 12 11 11 9 8 6 3 359 358 356 351 351 350 350 348 346 344 343 342 341 339 338 337 345 331 321 316 310 302 289 278 267 258 246
45 37 25 17 14 7 3 12 11 11 10 11 8 6 5 2 357 355 351 349 351 349 349 346 345 344 343 341 339 337 337 340 337 324 319 314 319 314 300 287 275 262 252
35 35 26 17 12 4 4 12 8 9 7 9 5 4 2 352 347 353 346 348 349 348 348 344 344 344 342 338 335 334 337 332 325 318 316 315 320 318 310 300 286 270 257
18 20 26 12 5 2 7 4 360 1 357 356 356 356 352 347 345 353 344 346 348 346 346 342 342 343 340 332 330 333 327 325 320 317 312 314 315 315 314 307 296 280 263
7 9 13 6 357 1 2 359 3 353 350 350 352 354 349 343 342 343 336 340 340 343 341 338 338 335 330 328 322 320 319 321 315 312 308 309 311 312 310 306 299 286 271
12 359 354 360 356 358 355 349 2 352 349 349 347 349 349 343 340 339 335 333 337 338 334 333 329 327 326 322 319 316 317 314 309 305 301 307 309 308 305 302 296 288 276
9 346 339 356 357 352 353 349 1 345 345 338 339 345 345 340 338 336 332 332 334 334 332 329 327 324 325 322 318 317 314 310 304 300 302 303 304 303 301 298 294 288 279
353 338 331 359 359 351 352 344 343 338 335 333 336 338 341 339 336 335 330 328 332 332 329 326 320 320 320 317 315 314 309 304 300 299 298 300 300 300 300 298 294 289 282
339 334 336 2 2 352 349 346 347 333 333 333 334 332 333 336 333 332 326 328 331 328 325 325 317 322 318 317 314 311 306 303 300 298 296 292 293 299 302 302 296 291 286
342 335 331 350 352 349 348 340 333 329 328 325 324 324 326 330 330 329 323 323 325 326 326 323 325 326 319 316 313 309 305 301 297 294 291 287 288 294 304 310 308 298 289
339 321 320 327 344 347 342 335 326 322 318 316 316 318 325 327 327 324 315 316 322 322 323 323 328 321 319 318 312 307 304 298 292 291 289 288 287 297 308 318 322 317 304
325 308 305 326 345 344 338 331 322 319 313 312 313 317 324 323 324 322 313 317 319 319 319 319 320 318 315 314 312 307 301 290 283 281 285 292 299 317 330 326 324 321 321
313 313 323 349 349 350 345 339 330 327 320 314 312 320 319 319 320 316 316 316 315 316 316 315 319 316 318 319 315 314 297 279 277 301 298 299 314 336 335 331 326 324 319
307 321 342 352 344 343 334 321 307 310 304 305 311 311 313 320 321 322 319 316 312 312 312 313 316 315 319 329 320 318 314 309 344 324 303 307 338 343 336 330 322 323 318
317 335 348 340 337 334 332 328 327 311 308 322 328 317 320 321 319 316 314 314 310 308 308 308 305 315 317 315 309 305 309 319 325 285 293 323 338 331 325 320 319 317 311
331 340 342 335 333 334 337 340 341 344 335 330 326 321 322 319 317 317 316 312 308 307 304 303 313 304 305 309 307 280 285 296 297 308 309 315 315 318 315 317 313 307 307
346 341 337 335 334 336 340 338 335 330 320 321 322 319 318 317 315 316 316 311 308 306 300 297 298 294 296 294 296 294 291 285 272 285 299 310 311 300 304 305 300 301 305
340 339 341 343 338 336 336 333 328 323 324 327 329 326 325 321 315 310 313 308 304 302 299 297 292 290 290 287 286 285 287 286 290 291 294 304 308 308 304 295 295 300 305